DO3HUM-5 Weather Reports


Display with metric or nautical units.
time (UTC)temp
F
wind
direction
speed
MPH
gust
MPH
rain 1hr
in
rain 24hr
in
rain mn
in
humidity
%
barometer
mb
20260502163609 78 91 1.0 4.0 0.00 0.00 0.00 35 1023.6
20260502162606 78 136 2.0 4.0 0.00 0.00 0.00 33 1023.8
20260502161558 78 117 2.0 4.0 0.00 0.00 0.00 33 1023.9
20260502160557 78 100 2.0 4.0 0.00 0.00 0.00 33 1024.0
20260502151530 79 180 2.0 8.0 0.00 0.00 0.00 33 1024.5
20260502150522 79 96 1.0 4.0 0.00 0.00 0.00 35 1024.6
20260502130519 80 91 3.0 7.0 0.00 0.00 0.00 36 1026.5
20260502123559 79 134 3.0 11.0 0.00 0.00 0.00 36 1027.0
20260502122555 79 204 1.0 6.0 0.00 0.00 0.00 36 1027.2
20260502121546 79 118 2.0 8.0 0.00 0.00 0.00 37 1027.4
20260502120542 78 139 2.0 8.0 0.00 0.00 0.00 36 1027.6
20260502115534 78 116 3.0 8.0 0.00 0.00 0.00 37 1027.7
20260502114530 78 115 2.0 9.0 0.00 0.00 0.00 37 1028.0
20260502113521 78 82 2.0 4.0 0.00 0.00 0.00 37 1028.1
20260502112612 78 219 1.0 4.0 0.00 0.00 0.00 38 1028.1
20260502111608 76 126 2.0 6.0 0.00 0.00 0.00 39 1028.2
20260502110601 75 104 3.0 9.0 0.00 0.00 0.00 39 1028.4
20260502105556 74 123 3.0 11.0 0.00 0.00 0.00 41 1028.5
20260502104547 61 66 1.0 7.0 0.00 0.00 0.00 73 1028.6
20260502103545 58 88 3.0 6.0 0.00 0.00 0.00 91 1028.7
20260502102534 59 308 2.0 4.0 0.00 0.00 0.00 90 1029.0
20260502101530 76 119 2.0 7.0 0.00 0.00 0.00 39 1029.0
20260502100522 74 315 2.0 6.0 0.00 0.00 0.00 40 1029.2
20260502090544 72 289 1.0 6.0 0.00 0.00 0.00 46 1029.8
20260502071534 63 123 2.0 4.0 0.00 0.00 0.00 53 1030.4
20260502070530 62 83 1.0 4.0 0.00 0.00 0.00 54 1030.5
20260502065523 62 107 2.0 6.0 0.00 0.00 0.00 54 1030.5
20260502064518 61 158 2.0 4.0 0.00 0.00 0.00 56 1030.5
20260502063040 60 99 1.0 4.0 0.00 0.00 0.00 58 1030.7
20260502062040 58 0.0 2.0 0.00 0.00 0.00 60 1030.6
20260502061032 57 159 0.0 2.0 0.00 0.00 0.00 61 1030.5
20260502060030 57 265 1.0 2.0 0.00 0.00 0.00 63 1030.6
20260502055026 55 113 1.0 4.0 0.00 0.00 0.00 65 1030.6
20260502054025 53 90 1.0 4.0 0.00 0.00 0.00 68 1030.6
20260502053020 52 125 1.0 2.0 0.00 0.00 0.00 69 1030.6
20260502052018 51 166 1.0 4.0 0.00 0.00 0.00 71 1030.6
20260502051015 50 111 0.0 2.0 0.00 0.00 0.00 73 1030.7
20260502050114 47 0.0 2.0 0.00 0.00 0.00 80 1030.7
20260502045111 43 0.0 2.0 0.00 0.00 0.00 88 1030.7
20260502044108 42 0.0 0.0 0.00 0.00 0.00 90 1030.7
20260502043104 42 0.0 0.0 0.00 0.00 0.00 90 1030.8
20260502042102 41 0.0 0.0 0.00 0.00 0.00 89 1030.8
20260502041100 41 0.0 0.0 0.00 0.00 0.00 89 1030.8
20260502040055 41 0.0 0.0 0.00 0.00 0.00 89 1030.8
20260502035053 41 0.0 0.0 0.00 0.00 0.00 89 1030.8
20260502034049 42 0.0 0.0 0.00 0.00 0.00 88 1030.8
20260502033047 42 0.0 0.0 0.00 0.00 0.00 88 1030.9
20260502032045 42 0.0 0.0 0.00 0.00 0.00 88 1030.9
20260502031041 42 0.0 0.0 0.00 0.00 0.00 88 1031.1
20260502030038 42 0.0 0.0 0.00 0.00 0.00 87 1031.1
20260502025036 42 0.0 0.0 0.00 0.00 0.00 88 1031.1
20260502024033 42 0.0 0.0 0.00 0.00 0.00 88 1031.1
20260502023030 43 0.0 0.0 0.00 0.00 0.00 87 1031.2
20260502022027 43 0.0 0.0 0.00 0.00 0.00 87 1031.2
20260502021024 43 0.0 0.0 0.00 0.00 0.00 87 1031.3
20260502020021 43 0.0 0.0 0.00 0.00 0.00 87 1031.1
20260502015018 43 0.0 0.0 0.00 0.00 0.00 87 1031.3
20260502014017 43 0.0 0.0 0.00 0.00 0.00 87 1031.3
20260502013113 43 0.0 0.0 0.00 0.00 0.00 87 1031.2
20260502012110 43 0.0 0.0 0.00 0.00 0.00 86 1031.4
20260502011108 43 0.0 0.0 0.00 0.00 0.00 86 1031.5
20260502010104 44 0.0 0.0 0.00 0.00 0.00 86 1031.5
20260502005103 44 0.0 0.0 0.00 0.00 0.00 86 1031.5
20260502004100 44 0.0 0.0 0.00 0.00 0.00 86 1031.6
20260502003055 44 0.0 0.0 0.00 0.00 0.00 86 1031.7
20260502002052 45 0.0 0.0 0.00 0.00 0.00 85 1031.8
20260502001050 44 0.0 0.0 0.00 0.00 0.00 86 1031.7
20260502000046 45 0.0 0.0 0.00 0.00 0.00 84 1031.9
20260501235044 46 0.0 0.0 0.00 0.00 0.00 83 1031.8
20260501234043 46 0.0 0.0 0.00 0.00 0.00 83 1031.9
20260501233038 46 0.0 0.0 0.00 0.00 0.00 84 1031.9
20260501232035 46 0.0 0.0 0.00 0.00 0.00 84 1032.0
20260501231032 45 0.0 0.0 0.00 0.00 0.00 83 1032.0
20260501230029 46 0.0 0.0 0.00 0.00 0.00 83 1032.0
20260501225027 46 0.0 0.0 0.00 0.00 0.00 83 1032.0
20260501224024 46 0.0 0.0 0.00 0.00 0.00 83 1032.2
20260501223021 47 0.0 0.0 0.00 0.00 0.00 83 1032.3
20260501222018 46 0.0 0.0 0.00 0.00 0.00 83 1032.3
20260501221015 47 0.0 0.0 0.00 0.00 0.00 82 1032.4
20260501220112 47 0.0 0.0 0.00 0.00 0.00 81 1032.3
20260501215112 48 0.0 0.0 0.00 0.00 0.00 80 1032.4
20260501214107 49 0.0 0.0 0.00 0.00 0.00 79 1032.4
20260501213104 49 0.0 0.0 0.00 0.00 0.00 77 1032.4
20260501212101 50 0.0 0.0 0.00 0.00 0.00 77 1032.4
20260501211058 49 0.0 0.0 0.00 0.00 0.00 76 1032.4
20260501210055 50 0.0 0.0 0.00 0.00 0.00 76 1032.6
20260501205051 51 0.0 0.0 0.00 0.00 0.00 74 1032.5
20260501204046 52 0.0 0.0 0.00 0.00 0.00 73 1032.5
20260501203045 52 0.0 0.0 0.00 0.00 0.00 74 1032.6
20260501202040 52 0.0 0.0 0.00 0.00 0.00 73 1032.7
20260501201039 53 0.0 0.0 0.00 0.00 0.00 72 1032.8
20260501200035 54 0.0 0.0 0.00 0.00 0.00 70 1032.7
20260501195032 54 0.0 0.0 0.00 0.00 0.00 70 1032.7
20260501194029 54 0.0 0.0 0.00 0.00 0.00 69 1032.6
20260501193026 55 0.0 0.0 0.00 0.00 0.00 69 1032.6
20260501192023 57 0.0 0.0 0.00 0.00 0.00 66 1032.8
20260501191021 58 0.0 0.0 0.00 0.00 0.00 64 1032.8
20260501190018 59 0.0 0.0 0.00 0.00 0.00 63 1032.8
20260501185015 60 0.0 0.0 0.00 0.00 0.00 58 1032.9
20260501184114 61 0.0 0.0 0.00 0.00 0.00 56 1032.7
20260501183111 63 0.0 0.0 0.00 0.00 0.00 52 1032.7
20260501182107 64 0.0 0.0 0.00 0.00 0.00 51 1032.6
20260501181104 66 0.0 0.0 0.00 0.00 0.00 48 1032.5
20260501175053 67 0.0 2.0 0.00 0.00 0.00 46 1032.5
20260501174052 68 79 1.0 4.0 0.00 0.00 0.00 46 1032.5
20260501173049 68 0.0 2.0 0.00 0.00 0.00 45 1032.6
20260501172046 69 78 0.0 2.0 0.00 0.00 0.00 45 1032.7